Regional Weather Roundup
Issued by NWS

Home | Current Version | Previous Version | Graphics & Text | Print | Product List | Glossary On
Versions: 1 2 3 4 5 6 7 8 9 10 11 12 13 14 15 16 17 18 19 20 21 22 23 24 25 26 27 28 29 30 31 32 33 34 35 36 37 38 39 40 41 42 43 44 45 46 47 48 49 50
000
ASUS43 KFSD 210902
RWRSD

WEATHER ROUNDUP FOR SOUTH DAKOTA
NATIONAL WEATHER SERVICE SIOUX FALLS SD
400 AM CDT SAT OCT 21 2017

NOTE: "FAIR" INDICATES FEW OR NO CLOUDS BELOW 12,000 FEET WITH NO
SIGNIFICANT WEATHER AND/OR OBSTRUCTIONS TO VISIBILITY.


SDZ001>005-009-010-012>017-211000-
NORTHWEST AND NORTH CENTRAL SOUTH DAKOTA

CITY           SKY/WX    TMP DP  RH WIND       PRES   REMARKS
BUFFALO          N/A     48  33  56 W31G39    29.53R
FAITH            N/A     51  39  63 NW26G35   29.49R
MOBRIDGE       PTCLDY    54  47  77 W8        29.41R
$$

SDZ012>016-024>037-041>051-057-063-072>074-211000-
SOUTHWEST AND SOUTH CENTRAL SOUTH DAKOTA

CITY           SKY/WX    TMP DP  RH WIND       PRES   REMARKS
RAPID CTY ARPT CLOUDY    52  37  56 N24G35    29.56R
PIERRE         PTCLDY    63  46  54 NW25      29.39S
CUSTER         CLOUDY    45  36  70 W6        29.62R
ELLSWORTH AFB  CLOUDY    52  33  48 N25G31    29.55R
PHILIP         CLOUDY    58  41  53 NW28G41   29.46R
PINE RIDGE     LGT RAIN  54  42  64 W10       29.57R
SPEARFISH      FAIR      46  28  49 W17G25    29.64R
WINNER         FAIR      63  56  78 SW15      29.43R
$$

SDZ004>011-016>023-039-040-211000-
NORTHEAST SOUTH DAKOTA

CITY           SKY/WX    TMP DP  RH WIND       PRES   REMARKS
ABERDEEN       CLEAR     63  58  83 S16       29.38S
WATERTOWN      CLOUDY    62  58  86 S20G26    29.46S
BROOKINGS      PTCLDY    63  57  81 S18G24    29.50F
SISSETON         N/A     67  58  72 S17G24    29.41F
$$

SDZ017-020-022-023-036>040-048>070-211000-
SOUTHEAST SOUTH DAKOTA

CITY           SKY/WX    TMP DP  RH WIND       PRES   REMARKS
SIOUX FALLS    PTCLDY    66  59  78 S20G29    29.51F
HURON          PTCLDY    65  58  78 S13       29.42S
CHAMBERLAIN    MOCLDY    65  60  82 S8        29.42F
MITCHELL       CLOUDY    67  58  72 S17       29.44F
YANKTON        CLOUDY    67  60  78 SE13      29.49F
$$

ABBREVIATIONS USED IN REMARKS
   TC - TEMPERATURE IN CELSIUS
  WCI - WIND CHILL INDEX
   HX - HEAT INDEX
  VSB - VISIBILITY




USA.gov is the U.S. government's official web portal to all federal, state and local government web resources and services.